CAPE
618 626 733 777 734 915 1091 1294 1456 1200 1380 1544 1482 1708 1523 1742 1734 1332 981 1031 892 803 116 34 33 0 0 0 0 0 0 0 0 7 25 0 0 0 0 0 0 0 0
764 904 1019 1095 1129 1106 1246 1158 1152 1248 1107 1286 1446 1647 1585 1747 1914 1841 1562 1608 1352 1156 430 216 120 54 0 0 0 0 0 0 0 0 0 0 0 0 0 0 0 0 0
800 982 980 1184 1455 1488 1441 1370 1249 1223 1245 1349 1549 1606 1647 1761 2079 2140 1969 1595 1613 1525 772 363 187 21 14 0 0 0 0 0 0 0 0 0 0 0 0 0 0 0 0
1076 1235 1243 1255 1335 1569 1703 1747 1585 1443 1119 1394 1776 1943 1924 1967 1985 1902 2079 2016 1802 1363 866 475 28 0 118 29 0 0 0 0 0 0 0 0 0 0 0 0 0 0 0
1416 1499 1476 1623 1842 1890 1928 1866 1725 1634 1500 1204 1259 1748 2012 2084 2130 2175 2289 2353 2228 1818 1133 570 139 24 97 50 0 0 0 0 0 0 0 0 0 0 0 0 0 0 0
1124 1324 1346 1513 1612 1750 1987 2088 2070 1976 1876 1760 1612 1334 1252 1639 1801 1899 2135 2037 1775 1572 1113 553 13 138 171 72 0 0 0 0 0 0 0 0 0 0 0 0 0 0 0
670 382 204 341 228 74 213 1064 1814 1722 1804 1844 1820 1866 1924 1767 1691 1805 2087 1999 1500 912 529 203 83 20 41 79 0 0 0 0 0 0 0 0 0 0 0 0 0 0 0
340 145 14 202 76 18 169 353 858 807 876 1283 1663 1862 1956 1706 1656 1780 1826 1592 1135 574 311 142 0 0 4 1 0 0 0 0 0 0 0 0 0 0 0 0 0 0 0
473 94 7 83 7 113 270 194 208 387 656 535 891 1319 1576 1654 1114 1224 1399 1219 932 546 118 0 0 0 67 0 0 0 0 0 0 0 0 0 0 0 0 0 0 0 0
0 51 41 65 12 0 0 0 0 0 0 5 45 178 169 274 31 74 264 643 563 375 125 27 54 98 39 0 0 0 0 0 0 0 0 0 0 0 0 0 0 0 0
0 0 4 0 0 152 97 1 0 0 0 0 0 0 13 31 71 68 25 2 0 0 8 3 55 19 0 0 0 0 0 0 0 0 0 0 0 0 0 0 0 0 0
44 334 289 357 248 175 32 14 57 70 12 0 0 0 0 0 0 0 10 0 0 0 0 6 3 0 0 3 0 0 0 0 0 0 0 0 0 0 0 0 0 0 0
133 198 249 300 720 702 378 169 231 103 36 111 159 115 13 0 0 0 0 0 0 0 0 0 0 0 2 0 0 0 0 0 0 0 0 0 0 0 0 0 0 0 0
586 464 468 502 259 348 334 293 226 186 280 287 268 248 194 44 5 1 0 0 0 0 0 0 0 0 0 0 0 0 0 0 0 0 0 0 0 0 0 0 0 0 0
551 433 211 37 235 383 253 103 107 32 43 162 301 322 307 152 32 1 0 0 0 0 0 0 0 0 0 0 0 0 0 0 0 0 0 0 0 0 0 0 0 9 18
282 406 28 170 189 95 67 60 0 0 0 0 0 107 133 23 110 66 20 0 0 0 0 0 0 0 0 0 0 0 0 0 0 0 0 0 0 0 0 0 7 15 18
522 215 30 8 24 60 14 131 115 1 0 0 0 1 30 0 0 0 0 0 0 0 0 0 0 0 0 0 1 0 0 0 0 0 0 0 0 0 0 0 0 0 2
688 185 3 0 4 64 11 40 86 31 90 65 0 3 0 0 0 0 0 0 0 0 1 1 1 0 0 0 1 0 0 0 0 0 0 0 0 0 0 0 0 0 0
305 133 0 0 2 21 5 14 0 92 94 31 4 2 0 0 0 0 0 0 1 0 1 0 0 0 0 0 0 0 0 0 0 0 0 0 0 0 0 0 0 0 0
320 126 152 266 0 8 3 43 33 37 2 0 0 2 0 0 17 0 0 0 0 0 0 2 0 0 1 1 0 0 0 0 0 0 0 0 0 0 0 2 0 0 0
43 237 493 115 111 214 124 71 48 66 0 0 0 7 9 39 33 9 0 0 0 0 0 0 0 0 0 0 0 0 0 0 0 0 0 0 0 0 0 0 0 0 0
437 547 370 205 61 45 12 13 67 115 13 0 0 0 0 10 29 4 0 0 0 0 0 0 0 0 0 0 0 0 0 0 0 0 0 0 0 0 0 0 0 0 0
29 363 173 57 5 0 0 0 0 3 16 33 14 0 0 60 29 0 0 0 0 0 0 0 0 0 0 0 0 0 0 0 0 0 0 0 0 0 0 0 0 0 0
226 140 93 15 0 0 0 0 0 0 0 31 24 0 0 14 30 11 10 0 0 0 0 0 0 0 0 0 0 0 0 0 0 0 0 0 0 0 0 0 0 0 0
321 283 148 0 0 4 13 11 30 129 231 141 244 219 81 113 73 54 38 13 0 0 0 0 0 0 0 0 0 0 0 0 0 0 0 0 0 0 0 0 0 0 0
15 254 217 144 15 47 38 0 26 18 31 138 307 370 364 266 182 125 56 6 0 0 0 0 0 0 0 0 0 0 0 0 0 0 0 0 0 0 0 0 0 0 0
CIN
-179 -179 -183 -186 -185 -155 -124 -107 -108 -116 -82 -70 -63 -73 -78 -68 -76 -95 -119 -102 -101 -112 -194 -186 -161 -0 -0 -0 -0 -0 -0 -0 -0 -147 -164 -0 -0 -0 -0 -0 -0 -0 -0
-158 -172 -158 -152 -153 -153 -140 -135 -133 -132 -139 -108 -92 -85 -87 -81 -75 -79 -74 -68 -64 -64 -118 -165 -159 -153 -0 -0 -0 -0 -0 -0 -0 -0 -0 -0 -0 -0 -0 -0 -0 -0 -0
-201 -193 -156 -147 -144 -141 -150 -164 -151 -147 -132 -131 -102 -95 -95 -86 -68 -68 -60 -63 -45 -50 -106 -141 -127 -163 -108 -0 -0 -0 -0 -0 -0 -0 -0 -0 -0 -0 -0 -0 -0 -0 -0
-236 -215 -194 -185 -173 -153 -151 -163 -158 -150 -145 -134 -118 -95 -94 -75 -59 -62 -48 -46 -47 -55 -79 -111 -193 -0 -126 -142 -0 -0 -0 -0 -0 -0 -0 -0 -0 -0 -0 -0 -0 -0 -0
-217 -207 -219 -197 -175 -163 -141 -140 -141 -139 -135 -154 -151 -130 -114 -120 -109 -73 -46 -32 -24 -34 -61 -116 -185 -241 -160 -159 -0 -0 -0 -0 -0 -0 -0 -0 -0 -0 -0 -0 -0 -0 -0
-256 -174 -191 -206 -197 -146 -129 -129 -109 -92 -92 -93 -104 -127 -132 -106 -126 -105 -60 -59 -67 -98 -139 -204 -301 -245 -205 -155 -0 -0 -0 -0 -0 -0 -0 -0 -0 -0 -0 -0 -0 -0 -0
-281 -326 -215 -144 -309 -350 -319 -188 -119 -97 -76 -64 -64 -75 -73 -94 -103 -98 -83 -62 -106 -185 -243 -278 -382 -224 -308 -170 -0 -0 -0 -0 -0 -0 -0 -0 -0 -0 -0 -0 -0 -0 -0
-277 -308 -137 -149 -232 -400 -290 -194 -166 -88 -71 -63 -43 -64 -69 -85 -115 -97 -93 -99 -126 -231 -286 -320 -0 -0 -289 -32 -0 -0 -0 -0 -0 -0 -0 -0 -0 -0 -0 -0 -0 -0 -0
-244 -353 -563 -305 -248 -196 -193 -251 -263 -206 -163 -172 -122 -92 -78 -104 -192 -189 -160 -162 -158 -186 -273 -0 -0 -0 -324 -0 -0 -0 -0 -0 -0 -0 -0 -0 -0 -0 -0 -0 -0 -0 -0
-0 -289 -271 -238 -232 -0 -0 -0 -0 -0 -0 -311 -260 -259 -303 -276 -513 -439 -290 -181 -170 -173 -236 -306 -282 -284 -325 -0 -0 -0 -0 -0 -0 -0 -0 -0 -0 -0 -0 -0 -0 -0 -0
-0 -0 -95 -0 -0 -146 -242 -17 -0 -0 -0 -0 -0 -0 -404 -423 -395 -329 -450 -242 -0 -0 -334 -61 -200 -245 -0 -0 -0 -0 -0 -0 -0 -0 -0 -0 -0 -0 -0 -0 -0 -0 -0
-113 -104 -126 -138 -170 -175 -214 -256 -245 -185 -158 -0 -0 -0 -0 -0 -0 -0 -188 -0 -0 -0 -0 -98 -89 -68 -0 -177 -0 -0 -0 -0 -0 -0 -0 -0 -0 -0 -0 -0 -0 -0 -0
-142 -147 -159 -150 -94 -91 -120 -139 -120 -178 -233 -183 -120 -131 -25 -0 -0 -0 -0 -0 -0 -0 -0 -0 -0 -0 -280 -0 -0 -0 -0 -0 -0 -0 -0 -0 -0 -0 -0 -0 -0 -0 -0
-98 -129 -121 -84 -122 -129 -125 -139 -132 -111 -75 -74 -78 -90 -92 -161 -161 -0 -0 -0 -0 -0 -0 -0 -0 -59 -0 -0 -0 -0 -0 -0 -0 -0 -0 -0 -0 -0 -0 -0 -0 -0 -0
-123 -148 -181 -246 -173 -143 -196 -273 -230 -221 -210 -117 -74 -67 -58 -88 -117 -0 -0 -0 -0 -0 -0 -0 -0 -0 -0 -0 -0 -0 -0 -0 -0 -0 -0 -0 -0 -0 -0 -0 -0 -72 -40
-143 -126 -159 -181 -216 -292 -323 -291 -0 -0 -0 -0 -0 -140 -129 -227 -127 -160 -200 -0 -0 -0 -0 -0 -30 -0 -0 -0 -19 -0 -0 -0 -0 -0 -0 -0 -0 -0 -0 -0 -71 -48 -46
-98 -121 -176 -274 -266 -247 -190 -196 -84 -144 -0 -0 -0 -157 -226 -6 -0 -0 -0 -0 -0 -0 -0 -0 -13 -1 -3 -0 -0 -0 -0 -0 -0 -0 -0 -0 -0 -0 -0 -0 -0 -2 -67
-95 -134 -99 -0 -88 -220 -242 -182 -127 -147 -94 -102 -58 -190 -0 -0 -0 -0 -0 -0 -0 -0 -0 -15 -21 -0 -0 -0 -0 -0 -0 -0 -0 -0 -0 -0 -0 -0 -7 -0 -0 -0 -0
-109 -148 -0 -0 -158 -218 -232 -219 -0 -166 -108 -103 -210 -113 -0 -0 -0 -0 -0 -0 -0 -5 -8 -4 -0 -0 -0 -0 -0 -0 -0 -0 -0 -0 -0 -0 -0 -0 -16 -0 -0 -0 -0
-141 -173 -151 -140 -0 -163 -281 -216 -208 -170 -71 -0 -31 -101 -0 -15 -289 -90 -0 -0 -0 -0 -0 -18 -4 -3 -0 -0 -0 -0 -0 -0 -0 -0 -0 -0 -0 -0 -0 -68 -0 -0 -0
-189 -143 -112 -165 -141 -121 -171 -180 -194 -160 -0 -0 -0 -238 -276 -242 -224 -275 -0 -0 -0 -0 -0 -0 -0 -0 -0 -0 -0 -0 -0 -0 -0 -0 -0 -0 -1 -0 -0 -0 -0 -0 -0
-112 -91 -115 -125 -175 -212 -148 -151 -163 -168 -94 -0 -0 -39 -0 -306 -262 -145 -0 -0 -0 -0 -0 -0 -0 -0 -0 -0 -0 -0 -0 -0 -0 -0 -0 -0 -0 -0 -0 -0 -0 -0 -0
-180 -96 -123 -185 -91 -0 -0 -0 -0 -106 -226 -227 -93 -0 -0 -201 -208 -0 -0 -0 -0 -0 -0 -0 -0 -0 -0 -0 -0 -0 -0 -0 -0 -0 -1 -0 -0 -0 -0 -0 -0 -0 -0
-106 -113 -146 -266 -0 -0 -0 -0 -0 -0 -0 -197 -170 -0 -0 -225 -202 -216 -243 -0 -0 -0 -0 -0 -0 -0 -0 -0 -0 -0 -0 -0 -0 -0 -0 -0 -0 -0 -0 -0 -0 -0 -0
-84 -78 -116 -0 -0 -273 -220 -224 -201 -185 -142 -136 -117 -161 -181 -185 -207 -223 -267 -309 -0 -0 -0 -0 -0 -0 -0 -0 -0 -0 -0 -0 -0 -0 -0 -0 -0 -0 -0 -0 -0 -0 -0
-101 -53 -63 -90 -52 -198 -199 -0 -178 -162 -122 -103 -103 -114 -115 -106 -135 -161 -214 -244 -0 -0 -0 -0 -0 -0 -0 -0 -0 -0 -0 -0 -0 -0 -0 -0 -0 -0 -0 -0 -0 -0 -0
Wind_Speed
18 19 17 17 17 16 18 21 16 9 7 20 20 1 11 10 6 8 9 7 5 5 15 18 18 16 12 11 11 12 10 12 12 19 21 20 6 3 3 4 7 9 10
19 16 19 17 15 17 20 27 26 20 10 13 10 2 7 6 3 5 4 2 2 4 15 16 19 27 16 12 8 10 8 6 7 8 4 19 8 4 4 5 7 11 8
16 14 17 18 19 21 20 19 17 12 8 12 8 6 5 5 4 4 3 2 3 5 10 10 11 13 6 1 4 7 7 8 7 7 7 9 9 5 7 10 11 12 12
11 8 10 13 16 20 22 20 18 13 10 6 8 10 7 8 8 9 9 5 4 6 6 6 10 13 14 6 1 6 10 11 11 10 11 9 8 7 8 9 10 11 11
14 18 10 8 6 18 19 30 34 10 31 9 10 10 9 8 9 11 11 10 8 7 6 7 11 11 7 1 1 6 9 9 8 9 9 8 6 6 4 8 10 15 16
20 19 21 20 21 18 33 24 15 22 26 28 23 21 18 21 18 12 12 12 11 11 10 9 12 16 14 11 3 3 5 4 4 6 6 5 4 4 5 6 10 12 14
15 22 30 39 31 22 30 35 29 27 26 40 15 17 19 13 17 16 14 16 13 11 11 9 11 18 21 16 9 4 4 4 4 4 4 4 5 2 4 7 9 11 13
3 28 21 13 35 36 32 34 31 27 30 39 42 25 21 18 15 14 15 16 14 14 13 10 14 9 16 11 13 6 5 7 7 5 5 6 5 7 3 4 7 12 14
15 17 16 27 37 35 31 29 26 27 26 31 37 36 29 26 19 18 17 17 16 17 16 18 20 20 18 13 8 7 5 6 9 8 8 9 10 8 7 8 10 12 15
12 11 12 15 23 27 27 28 27 26 25 28 30 30 30 29 28 27 26 21 19 18 16 18 20 19 13 5 4 5 5 4 6 8 7 9 9 9 8 10 8 10 12
10 12 14 17 22 25 24 25 25 25 27 28 27 30 28 27 27 26 25 22 20 23 23 18 15 7 1 3 3 4 4 5 4 4 5 6 8 8 8 9 8 10 12
10 12 15 17 20 23 25 26 26 29 30 31 31 31 29 30 24 20 17 20 19 16 13 13 11 5 3 1 2 3 4 2 2 2 3 4 6 6 6 7 8 8 11
15 17 18 20 22 23 25 27 27 26 28 30 29 28 26 23 22 15 12 12 12 10 8 8 5 4 5 6 3 2 2 1 1 3 4 4 5 6 8 9 9 10 10
21 22 22 21 24 25 24 24 25 26 27 28 25 23 20 18 18 15 10 6 5 6 6 7 6 9 9 6 3 3 2 2 2 2 3 5 6 7 6 8 9 10 11
18 18 20 22 24 24 21 22 23 21 20 21 21 20 19 18 16 11 9 7 6 5 5 8 10 11 10 9 6 4 2 2 5 5 6 5 9 11 9 8 9 10 12
16 18 19 20 22 22 22 24 22 19 19 17 16 16 16 18 15 10 10 9 7 5 9 10 12 14 13 9 5 5 3 4 5 5 6 7 10 12 11 10 8 10 14
14 14 15 20 19 20 22 20 15 14 12 14 15 16 15 15 15 14 12 11 10 8 12 12 14 13 12 9 6 4 5 5 5 6 6 8 9 12 8 9 10 14 13
10 10 14 17 19 19 18 18 17 15 14 14 12 13 13 14 16 16 15 13 14 10 11 13 13 13 11 8 6 5 4 3 3 5 6 8 12 5 7 9 11 12 10
9 9 11 13 12 11 12 11 11 10 7 16 11 13 14 14 15 16 17 17 17 15 14 15 13 11 9 7 6 5 3 1 2 3 5 6 6 4 8 12 11 10 9
10 9 8 7 9 8 8 7 7 8 10 12 11 17 18 17 18 19 20 20 20 18 14 10 10 10 9 8 6 5 4 4 2 2 2 5 7 8 12 11 8 7 7
11 9 6 8 8 9 6 5 8 12 11 12 15 18 17 9 19 20 20 20 19 17 15 13 11 10 10 8 6 6 6 6 6 6 5 5 7 10 11 10 8 8 10
10 9 9 10 9 8 9 9 8 12 12 13 15 17 15 14 10 10 15 18 19 17 15 14 13 11 9 7 6 6 7 5 5 6 4 5 7 7 12 7 8 10 10
12 12 12 10 9 8 8 9 12 12 12 14 11 12 13 14 10 9 11 16 18 18 15 14 13 11 11 9 8 6 6 6 6 5 4 5 6 7 7 8 8 9 11
13 12 12 11 10 12 12 14 13 10 12 11 10 10 9 8 7 6 12 15 17 17 16 15 12 11 10 8 8 8 9 9 7 8 10 8 9 9 10 9 9 10 12
15 14 14 14 12 13 14 14 18 16 9 7 7 6 6 6 6 5 8 12 15 15 14 12 12 10 9 8 7 7 7 8 11 12 9 8 8 10 11 10 10 11 13
16 14 14 13 12 12 12 12 12 13 16 14 6 4 4 5 7 7 9 11 13 12 11 10 9 10 11 10 9 9 10 9 9 9 9 8 10 11 12 11 11 12 13
Wind_Direction
185 188 184 185 184 184 185 189 179 164 306 278 282 148 162 153 126 139 149 119 109 113 348 348 355 2 10 21 26 26 29 11 355 322 302 300 3 86 65 16 360 355 354
190 185 189 189 184 187 194 204 202 194 298 294 298 263 176 175 167 165 166 89 49 18 348 349 340 336 340 356 23 27 48 87 117 151 15 306 356 78 73 28 6 352 2
183 184 186 190 191 195 193 192 190 192 283 292 284 258 238 241 246 257 247 242 317 333 344 348 2 9 222 319 38 35 46 55 96 85 87 13 358 52 12 358 356 355 356
190 193 192 190 193 199 202 201 198 192 194 211 204 206 228 273 267 286 296 267 271 320 329 333 344 358 353 203 104 37 22 14 22 30 13 22 18 11 8 5 1 3 2
286 283 282 283 265 205 210 223 241 272 225 224 222 222 230 247 268 277 279 277 283 300 313 327 341 352 356 287 203 26 15 14 17 29 29 34 56 42 71 12 5 344 344
289 288 286 285 287 303 276 223 296 293 288 285 289 289 287 287 287 272 278 280 286 295 307 319 332 338 353 340 231 356 15 20 32 27 28 37 72 66 56 33 7 360 352
302 291 287 278 272 312 295 290 292 288 289 259 262 290 226 266 286 284 273 286 286 289 297 307 324 328 323 324 320 333 353 351 6 15 9 16 21 55 26 13 6 3 357
351 274 287 232 244 294 301 299 295 298 289 274 255 229 227 230 284 277 276 282 276 277 279 278 301 326 321 324 313 306 322 327 333 348 354 355 2 2 11 7 4 358 358
311 308 301 294 286 289 303 304 302 301 300 288 278 281 293 294 291 291 289 289 279 271 285 298 307 307 303 292 283 284 300 315 327 340 347 350 358 16 22 12 2 355 350
324 317 311 308 305 302 304 302 303 305 302 293 291 293 294 297 297 296 297 297 297 299 299 307 312 310 302 255 244 255 268 288 313 327 345 355 4 17 24 4 9 1 4
340 331 324 314 308 305 307 307 305 305 298 296 303 298 301 301 300 295 294 298 299 300 302 307 317 319 342 226 255 242 263 300 314 343 359 359 357 3 12 20 29 19 7
4 346 333 324 316 311 307 306 303 298 298 299 301 302 306 308 304 294 280 290 297 297 300 304 314 318 320 292 265 261 286 279 314 343 342 350 354 5 18 26 18 16 8
353 345 336 327 322 319 313 307 304 305 304 301 304 307 310 317 325 328 315 293 293 294 304 311 345 39 355 329 290 269 279 252 243 310 312 339 350 4 5 3 359 356 357
336 333 334 335 329 323 322 320 314 308 307 309 308 315 322 327 327 331 343 13 3 333 335 332 346 342 337 342 326 297 279 274 265 267 307 336 348 348 351 348 349 350 351
7 354 343 339 334 334 334 330 325 320 323 324 323 323 327 331 338 348 355 4 4 7 358 338 337 335 331 323 314 298 272 274 297 307 311 330 332 334 342 356 351 360 357
27 17 7 1 351 346 338 326 326 325 322 331 339 338 345 337 341 354 348 349 3 4 328 324 323 325 321 315 296 286 269 275 293 308 310 326 335 339 346 351 355 356 350
45 51 45 11 0 354 352 354 355 343 353 343 343 345 353 348 342 329 346 353 347 343 325 325 322 324 326 329 322 276 285 311 327 325 329 325 336 323 353 357 359 351 1
82 76 62 61 53 10 8 7 354 354 335 331 351 354 351 348 346 350 358 7 357 4 353 343 340 340 339 340 344 332 317 302 314 331 328 326 322 350 357 1 356 356 11
89 83 69 72 86 98 92 107 81 71 129 347 337 333 327 327 334 346 351 352 350 348 347 342 345 350 356 0 357 355 348 350 322 327 327 326 333 349 353 350 0 16 24
106 103 107 101 82 111 108 116 125 139 124 111 316 257 290 308 304 314 332 337 339 345 356 6 6 6 10 14 15 21 43 72 68 28 15 347 354 358 344 2 10 26 49
92 102 118 89 85 86 86 142 162 174 144 123 178 218 212 39 228 265 337 348 358 4 10 16 18 13 12 21 42 64 73 66 48 62 81 51 3 343 350 1 26 56 11
81 78 88 78 82 77 73 70 121 154 155 184 205 229 186 167 102 60 22 5 6 17 18 13 12 16 12 18 43 71 91 67 47 53 39 23 4 7 333 19 42 14 24
56 59 66 77 73 83 89 110 142 121 134 187 144 149 176 172 115 82 39 16 10 15 21 19 23 30 33 44 57 66 75 81 66 60 63 50 75 42 66 56 25 19 31
39 48 49 60 90 90 79 74 79 99 135 86 76 100 125 115 113 75 15 3 5 13 15 18 32 52 53 34 33 45 81 84 93 92 101 67 39 65 76 50 40 35 32
27 38 39 48 58 44 41 42 22 16 183 130 98 88 87 76 70 84 38 11 360 8 18 32 40 49 64 58 64 75 40 69 91 100 87 62 42 92 91 71 66 41 36
13 30 32 44 44 40 31 34 37 32 8 18 61 73 54 36 28 31 24 13 5 13 28 49 62 70 84 80 84 83 84 73 80 97 98 86 87 95 98 83 69 57 59